DW0708 Weather Reports


time (UTC)temp
F
wind
direction
speed
knots
gust
knots
rain 1hr
in
rain 24hr
in
rain mn
in
humidity
%
barometer
mb
20260506110514 75 0 0.0 4.3 0.00 0.00 0.00 90 1009.3
20260506110033 75 0 0.0 4.3 0.00 0.00 0.00 90 1009.1
20260506105531 75 0 0.0 2.6 0.00 0.00 0.00 90 1009.0
20260506105010 75 0 0.0 2.6 0.00 0.00 0.00 90 1008.8
20260506104526 75 0 0.0 2.6 0.00 0.00 0.00 89 1008.8
20260506104011 75 0 0.0 5.2 0.00 0.00 0.00 89 1008.8
20260506103514 75 160 0.9 5.2 0.00 0.00 0.00 90 1008.7
20260506103033 75 0 0.9 3.5 0.00 0.00 0.00 90 1008.7
20260506102513 75 0 0.9 4.3 0.00 0.00 0.00 90 1008.7
20260506102013 75 142 0.0 4.3 0.00 0.00 0.00 90 1008.8
20260506101530 75 127 0.9 4.3 0.00 0.00 0.00 90 1008.7
20260506101011 75 98 0.9 4.3 0.00 0.00 0.00 90 1008.8
20260506100512 75 0 0.0 7.8 0.00 0.00 0.00 90 1008.8
20260506100029 75 176 1.7 7.8 0.00 0.00 0.00 90 1008.8
20260506095510 75 117 0.9 6.1 0.00 0.00 0.00 90 1008.6
20260506095010 75 0 0.9 7.0 0.00 0.00 0.00 90 1008.6
20260506094529 75 177 0.0 7.0 0.00 0.00 0.00 90 1008.5
20260506094009 75 137 1.7 6.1 0.00 0.00 0.00 90 1008.5
20260506093515 75 69 0.9 6.1 0.00 0.00 0.00 90 1008.4
20260506093028 75 151 0.0 3.5 0.00 0.00 0.00 90 1008.4
20260506092516 75 127 0.9 3.5 0.00 0.00 0.00 90 1008.4
20260506092011 75 169 0.9 6.1 0.00 0.00 0.00 90 1008.3
20260506091526 75 177 1.7 6.1 0.00 0.00 0.00 90 1008.3
20260506091010 75 0 1.7 6.1 0.00 0.00 0.00 90 1008.4
20260506090511 75 0 0.9 5.2 0.00 0.00 0.00 90 1008.3
20260506090029 75 119 0.0 7.0 0.00 0.00 0.00 90 1008.3
20260506085511 75 0 1.7 7.0 0.00 0.00 0.00 90 1008.3
20260506085012 75 185 0.9 7.8 0.00 0.00 0.00 90 1008.3
20260506084527 75 132 0.9 7.8 0.00 0.00 0.00 89 1008.2
20260506084011 75 141 0.0 7.8 0.00 0.00 0.00 89 1008.3
20260506083510 75 136 0.9 7.8 0.00 0.00 0.00 89 1008.3
20260506083027 76 177 0.0 4.3 0.00 0.00 0.00 89 1008.3
20260506082509 76 0 0.9 8.7 0.00 0.00 0.00 89 1008.4
20260506082012 76 0 0.0 8.7 0.00 0.00 0.00 89 1008.3
20260506081528 76 141 0.9 5.2 0.00 0.00 0.00 89 1008.5
20260506081013 76 187 0.9 5.2 0.00 0.00 0.00 89 1008.5
20260506080513 76 170 0.9 4.3 0.00 0.00 0.00 89 1008.6
20260506073513 76 0 0.0 6.1 0.00 0.00 0.00 88 1009.0
20260506073029 76 162 0.9 7.0 0.00 0.00 0.00 88 1008.9
20260506072512 76 0 0.9 7.0 0.00 0.00 0.00 88 1009.0
20260506072013 76 138 0.9 3.5 0.00 0.00 0.00 88 1009.1
20260506071528 76 0 0.0 5.2 0.00 0.00 0.00 88 1009.3
20260506071014 76 0 0.9 5.2 0.00 0.00 0.00 88 1009.3
20260506070515 76 0 0.9 7.0 0.00 0.00 0.00 88 1009.3
20260506062512 76 0 0.0 4.3 0.00 0.00 0.00 87 1009.5
20260506062012 76 0 0.9 4.3 0.00 0.00 0.00 87 1009.5
20260506061528 76 0 0.0 5.2 0.00 0.00 0.00 87 1009.5
20260506061013 76 0 0.9 5.2 0.00 0.00 0.00 87 1009.5
20260506060512 76 0 0.0 4.3 0.00 0.00 0.00 87 1009.5
20260506051011 77 184 0.9 10.4 0.00 0.00 0.00 85 1009.2
20260506050514 77 0 1.7 10.4 0.00 0.00 0.00 85 1009.2
20260506045014 77 0 0.0 5.2 0.00 0.00 0.00 85 1009.4
20260506044537 77 0 1.7 7.0 0.00 0.00 0.00 85 1009.3
20260506044012 77 0 0.9 7.0 0.00 0.00 0.00 85 1009.3
20260506043512 77 164 0.9 7.0 0.00 0.00 0.00 85 1009.3
20260506043027 77 160 0.9 5.2 0.00 0.00 0.00 84 1009.3
20260506042517 77 156 0.9 6.1 0.00 0.00 0.00 84 1009.3
20260506042038 77 0 0.9 6.1 0.00 0.00 0.00 84 1009.4
20260506041528 77 142 0.0 4.3 0.00 0.00 0.00 84 1009.4
20260506041011 77 198 0.9 4.3 0.00 0.00 0.00 84 1009.4
20260506040515 77 124 0.0 4.3 0.00 0.00 0.00 84 1009.4
20260506040029 77 105 0.0 4.3 0.00 0.00 0.00 84 1009.2
20260506035514 77 0 0.0 9.6 0.00 0.00 0.00 84 1009.1
20260506035011 77 94 1.7 9.6 0.00 0.00 0.00 84 1009.1
20260506034528 77 110 0.0 8.7 0.00 0.00 0.00 84 1009.1
20260506034011 78 0 0.0 6.1 0.00 0.00 0.00 83 1009.1
20260506033509 78 0 0.0 6.1 0.00 0.00 0.00 83 1009.1
20260506033033 78 142 0.9 7.8 0.00 0.00 0.00 83 1009.0
20260506032508 78 248 0.9 7.8 0.00 0.00 0.00 83 1008.9
20260506032011 78 105 0.0 4.3 0.00 0.00 0.00 83 1008.8
20260506031532 78 0 0.0 6.1 0.00 0.00 0.00 83 1008.9
20260506031009 78 0 1.7 6.1 0.00 0.00 0.00 83 1008.8
20260506030511 78 236 0.0 5.2 0.00 0.00 0.00 83 1008.8
20260506030046 78 0 0.9 5.2 0.00 0.00 0.00 83 1008.7
20260506025511 78 168 0.9 5.2 0.00 0.00 0.00 82 1008.7
20260506025012 78 293 0.9 6.1 0.00 0.00 0.00 82 1008.6
20260506024531 78 155 0.9 6.1 0.00 0.00 0.00 82 1008.5
20260506024011 78 0 1.7 6.1 0.00 0.00 0.00 82 1008.5
20260506023513 78 0 0.0 6.1 0.00 0.00 0.00 82 1008.3
20260506023027 78 0 0.9 6.1 0.00 0.00 0.00 82 1008.2
20260506022510 78 0 0.0 6.1 0.00 0.00 0.00 82 1008.2
20260506022010 78 160 0.9 7.0 0.00 0.00 0.00 82 1008.0
20260506021528 78 200 0.9 7.0 0.00 0.00 0.00 81 1008.0
20260506021012 78 224 0.9 3.5 0.00 0.00 0.00 81 1007.9
20260506020515 78 0 0.9 6.1 0.00 0.00 0.00 81 1007.9
20260506020028 78 0 0.0 7.8 0.00 0.00 0.00 81 1007.8
20260506015512 79 160 0.9 7.8 0.00 0.00 0.00 81 1007.8
20260506015010 79 0 0.9 4.3 0.00 0.00 0.00 81 1007.6
20260506014528 79 0 0.0 3.5 0.00 0.00 0.00 81 1007.6
20260506014008 79 0 0.0 5.2 0.00 0.00 0.00 80 1007.4
20260506013511 79 0 0.0 5.2 0.00 0.00 0.00 80 1007.4
20260506013031 79 0 0.9 5.2 0.00 0.00 0.00 80 1007.3
20260506012509 79 216 0.9 4.3 0.00 0.00 0.00 80 1007.4
20260506012013 79 76 0.0 4.3 0.00 0.00 0.00 79 1007.2
20260506011536 79 0 0.0 3.5 0.00 0.00 0.00 79 1007.1
20260506011015 79 0 0.0 6.1 0.00 0.00 0.00 79 1007.1
20260506010511 80 0 0.9 6.1 0.00 0.00 0.00 78 1007.0
20260506010026 80 0 0.9 6.1 0.00 0.00 0.00 78 1007.1
20260506005508 80 0 0.0 4.3 0.00 0.00 0.00 78 1007.0
20260506005009 80 0 0.0 4.3 0.00 0.00 0.00 78 1007.0
20260506004543 80 162 0.0 5.2 0.00 0.00 0.00 78 1007.0
20260506004009 80 223 0.0 5.2 0.00 0.00 0.00 77 1007.0
20260506003511 80 0 1.7 7.0 0.00 0.00 0.00 77 1006.8
20260506003033 80 129 0.9 7.0 0.00 0.00 0.00 77 1006.9
20260506002511 81 206 0.9 7.8 0.00 0.00 0.00 77 1006.8
20260506002017 81 189 1.7 7.8 0.00 0.00 0.00 77 1006.9
20260506001531 81 0 0.0 5.2 0.00 0.00 0.00 77 1006.9
20260506001010 81 0 0.9 7.0 0.00 0.00 0.00 76 1007.0
20260506000513 81 0 0.9 7.0 0.00 0.00 0.00 76 1006.9
20260506000026 81 160 0.9 7.0 0.00 0.00 0.00 76 1006.7
20260505235510 81 0 1.7 7.0 0.00 0.00 0.00 76 1006.7
20260505235008 81 197 0.9 13.0 0.00 0.00 0.00 76 1006.8
20260505234526 81 198 2.6 13.0 0.00 0.00 0.00 75 1006.7
20260505234009 82 231 0.9 4.3 0.00 0.00 0.00 76 1006.8
20260505233512 82 189 0.9 9.6 0.00 0.00 0.00 76 1006.6
20260505233025 82 146 1.7 9.6 0.00 0.00 0.00 76 1006.6
20260505232509 82 175 2.6 9.6 0.00 0.00 0.00 76 1006.6
20260505232009 82 136 1.7 7.0 0.00 0.00 0.00 75 1006.7
20260505231529 82 204 0.0 5.2 0.00 0.00 0.00 75 1006.6
20260505231013 82 122 1.7 7.0 0.00 0.00 0.00 75 1006.6
20260505230510 82 159 0.9 11.3 0.00 0.00 0.00 75 1006.8
20260505230039 83 0 0.9 11.3 0.00 0.00 0.00 75 1006.9
20260505225511 83 160 1.7 11.3 0.00 0.00 0.00 74 1006.9
20260505225015 83 198 3.5 7.8 0.00 0.00 0.00 74 1006.8
20260505224533 83 0 2.6 10.4 0.00 0.00 0.00 74 1006.7
20260505224008 83 200 1.7 10.4 0.00 0.00 0.00 73 1006.8
20260505223512 84 0 1.7 10.4 0.00 0.00 0.00 73 1006.7
20260505223027 84 248 0.0 9.6 0.00 0.00 0.00 73 1006.6
20260505222508 84 286 3.5 9.6 0.00 0.00 0.00 73 1006.7
20260505222009 84 171 0.0 9.6 0.00 0.00 0.00 74 1006.9
20260505221526 84 0 0.9 11.3 0.00 0.00 0.00 73 1006.8
20260505221012 84 171 2.6 11.3 0.00 0.00 0.00 73 1006.8
20260505220512 84 189 1.7 11.3 0.00 0.00 0.00 74 1006.8
20260505220032 84 0 0.9 9.6 0.00 0.00 0.00 74 1006.9
20260505215513 83 153 1.7 9.6 0.00 0.00 0.00 73 1007.0
20260505215012 83 155 1.7 8.7 0.00 0.00 0.00 73 1007.0
20260505214534 83 201 2.6 9.6 0.00 0.00 0.00 73 1007.1
20260505214013 84 198 0.9 9.6 0.00 0.00 0.00 73 1007.3
20260505213517 84 0 1.7 7.0 0.00 0.00 0.00 73 1007.4
20260505213033 84 91 1.7 7.0 0.00 0.00 0.00 73 1007.5
20260505212513 84 138 0.9 8.7 0.00 0.00 0.00 73 1007.5
20260505212012 84 256 1.7 8.7 0.00 0.00 0.00 72 1007.6
20260505211528 84 60 1.7 8.7 0.00 0.00 0.00 74 1007.6
20260505211009 84 0 0.0 8.7 0.00 0.00 0.00 73 1007.6
20260505210515 84 174 1.7 12.2 0.00 0.00 0.00 72 1007.7
20260505210029 84 0 0.9 12.2 0.00 0.00 0.00 72 1007.8
20260505205511 85 189 2.6 12.2 0.00 0.00 0.00 73 1007.8
20260505205009 85 0 2.6 9.6 0.00 0.00 0.00 72 1007.9
20260505204533 85 195 2.6 9.6 0.00 0.00 0.00 71 1007.9
20260505204009 85 0 0.9 8.7 0.00 0.00 0.00 73 1007.9
20260505203510 84 242 4.3 10.4 0.00 0.00 0.00 71 1008.1
20260505203034 84 0 2.6 10.4 0.00 0.00 0.00 72 1008.2
20260505202514 84 225 2.6 10.4 0.00 0.00 0.00 71 1008.1
20260505202012 84 94 3.5 10.4 0.00 0.00 0.00 71 1008.2
20260505201533 84 295 3.5 10.4 0.00 0.00 0.00 73 1008.2
20260505201013 84 212 2.6 9.6 0.00 0.00 0.00 73 1008.3
20260505200511 84 209 1.7 9.6 0.00 0.00 0.00 72 1008.5
20260505200032 84 152 2.6 12.2 0.00 0.00 0.00 72 1008.3
20260505195516 84 124 2.6 12.2 0.00 0.00 0.00 72 1008.6
20260505195012 84 144 3.5 16.5 0.00 0.00 0.00 72 1008.6
20260505194528 84 227 2.6 16.5 0.00 0.00 0.00 73 1008.8
20260505194012 84 195 3.5 16.5 0.00 0.00 0.00 72 1008.8
20260505193511 83 134 2.6 13.0 0.00 0.00 0.00 74 1008.8
20260505193028 83 124 2.6 16.5 0.00 0.00 0.00 74 1008.9
20260505192511 83 149 1.7 16.5 0.00 0.00 0.00 75 1008.8
20260505192011 83 151 4.3 16.5 0.00 0.00 0.00 75 1008.7
20260505191529 83 179 0.0 8.7 0.00 0.00 0.00 75 1008.9
20260505191013 82 0 1.7 8.7 0.00 0.00 0.00 75 1008.9
20260505190512 82 338 0.9 10.4 0.00 0.00 0.00 76 1009.0
20260505190039 82 202 2.6 10.4 0.00 0.00 0.00 76 1008.9
20260505185516 82 0 2.6 11.3 0.00 0.00 0.00 77 1008.8
20260505185015 81 184 1.7 11.3 0.00 0.00 0.00 79 1009.0
20260505184531 81 194 0.9 8.7 0.00 0.00 0.00 79 1009.1
20260505184013 81 0 2.6 9.6 0.00 0.00 0.00 79 1009.1
20260505183510 80 264 2.6 11.3 0.00 0.00 0.00 80 1009.2
20260505183030 80 148 2.6 11.3 0.00 0.00 0.00 81 1009.3
20260505182510 80 0 0.0 10.4 0.00 0.00 0.00 81 1009.2
20260505182013 79 138 2.6 10.4 0.00 0.00 0.00 81 1009.2
20260505181532 79 221 1.7 5.2 0.00 0.00 0.00 81 1009.3
20260505181011 79 248 0.9 9.6 0.00 0.00 0.00 81 1009.4
20260505180513 79 0 2.6 9.6 0.00 0.00 0.00 82 1009.4
20260505180037 79 0 0.9 9.6 0.00 0.00 0.00 81 1009.4
20260505175514 79 259 2.6 9.6 0.00 0.00 0.00 81 1009.5
20260505175013 79 302 1.7 7.8 0.00 0.00 0.00 82 1009.5
20260505174529 79 258 1.7 7.0 0.00 0.00 0.00 82 1009.5
20260505174013 79 232 0.9 9.6 0.00 0.00 0.00 82 1009.5
20260505173509 79 135 1.7 9.6 0.00 0.00 0.00 81 1009.6
20260505173029 79 169 0.9 7.8 0.00 0.00 0.00 82 1009.6
20260505172511 79 191 1.7 7.8 0.00 0.00 0.00 82 1009.6
20260505172011 79 186 0.9 10.4 0.00 0.00 0.00 82 1009.6
20260505171528 79 0 1.7 10.4 0.00 0.00 0.00 82 1009.7
20260505171013 79 150 1.7 10.4 0.00 0.00 0.00 83 1009.6
20260505170514 78 210 1.7 8.7 0.00 0.00 0.00 83 1009.7
20260505170027 78 0 0.9 8.7 0.00 0.00 0.00 84 1009.7
20260505165512 78 309 0.9 7.0 0.00 0.00 0.00 84 1009.8
20260505165012 78 195 0.9 7.0 0.00 0.00 0.00 84 1009.8
20260505164536 78 0 0.9 6.1 0.00 0.00 0.00 84 1009.9
20260505164011 78 0 0.0 7.0 0.00 0.00 0.00 84 1009.9
20260505163512 77 0 1.7 7.0 0.00 0.00 0.00 84 1009.9
20260505163034 77 174 1.7 6.1 0.00 0.00 0.00 84 1010.0
20260505162512 77 210 2.6 6.1 0.00 0.00 0.00 84 1009.9
20260505162014 77 293 1.7 6.1 0.00 0.00 0.00 84 1009.9
20260505161528 77 206 0.9 5.2 0.00 0.00 0.00 85 1009.8
20260505161011 77 0 0.0 8.7 0.00 0.00 0.00 85 1009.8
20260505160512 76 167 1.7 8.7 0.00 0.00 0.00 85 1009.7
20260505153034 76 240 1.7 11.3 0.00 0.00 0.00 84 1009.5
20260505152512 76 0 0.9 7.0 0.00 0.00 0.00 84 1009.5
20260505152013 76 170 1.7 9.6 0.00 0.00 0.00 84 1009.5
20260505151530 76 0 2.6 15.6 0.00 0.00 0.00 84 1009.6
20260505151013 76 236 4.3 15.6 0.00 0.00 0.00 84 1009.4
20260505150511 76 138 3.5 12.2 0.00 0.00 0.00 84 1009.5
20260505140510 74 149 2.6 7.8 0.00 0.00 0.00 89 1009.3
20260505125011 71 122 0.9 5.2 0.00 0.00 0.00 91 1009.3
20260505124529 71 217 0.9 5.2 0.00 0.00 0.00 91 1009.0
20260505124013 71 174 0.9 5.2 0.00 0.00 0.00 91 1008.8
20260505123509 71 85 0.0 4.3 0.00 0.00 0.00 91 1008.7
20260505123035 71 107 0.9 4.3 0.00 0.00 0.00 91 1008.8
20260505122510 71 133 0.9 3.5 0.00 0.00 0.00 91 1009.1
20260505122014 70 129 0.9 2.6 0.00 0.00 0.00 91 1009.1
20260505121532 70 0 0.0 2.6 0.00 0.00 0.00 91 1009.1
20260505121013 70 0 0.0 2.6 0.00 0.00 0.00 90 1009.2
20260505120512 70 147 0.0 4.3 0.00 0.00 0.00 90 1008.9
20260505120039 70 0 0.0 6.1 0.00 0.00 0.00 90 1008.9
20260505115512 70 103 0.9 6.1 0.00 0.00 0.00 90 1008.9
20260505115009 70 0 0.0 4.3 0.00 0.00 0.00 90 1008.8
20260505114527 70 185 0.9 4.3 0.00 0.00 0.00 90 1008.6
20260505114012 70 148 0.0 2.6 0.00 0.00 0.00 90 1008.5
20260505113511 70 0 0.0 4.3 0.00 0.00 0.00 90 1008.7
20260505113029 70 177 0.9 4.3 0.00 0.00 0.00 90 1009.0
20260505112511 70 0 0.0 4.3 0.00 0.00 0.00 90 1008.9
20260505112011 70 0 0.9 6.1 0.00 0.00 0.00 90 1008.9
20260505111532 70 139 0.0 6.1 0.00 0.00 0.00 90 1009.0
20260505111011 70 224 0.9 6.1 0.00 0.00 0.00 90 1008.8